Find Starlink 32875

NORAD ID: 62951 Int'l Des: 2025-029 Owner: SPXS Country: US Constellation: starlink operational
LEOCIRCULAR

Live Position

Loading 3D Globe...

About Starlink 32875

Description loading...

Upcoming Passes

Passes for default location (London). Set your location on the main map for personalized predictions.

Altitude History

Loading altitude history...

Two-Line Element Set

1 62951U 25029D 26125.54351269 .00036190 00000-0 12271-2 0 9996
2 62951 53.1614 326.1437 0000890 93.1433 266.9670 15.30226284 70063
Epoch: May 5, 2026 • Age: 5 hours

Current Status

Altitude 477.9 km
Velocity 7.63 km/s
Sub-Earth Point 38.46°N, 131.66°W
Launch Date Feb 11, 2025
Age 1.2 years
Type internet

Technical Details

Classification Payload
Mass 730.00 kg
Dry Mass 700.00 kg
Total Mass 730.00 kg
Length 0.30 m
Diameter 4.10 m
Span 29.00 m
Shape Box + pan
Manufacturer SPXS
Bus Type Starlink V2M
Phase Status In Orbit
Owner/State SPXS/US

Most Searched